This demonstration page uses our WeatherBlox Daily Observations layout. Learn more.

Left ArrowRight Arrow

38.20091, -84.87328

Hourly Observations for May 14, 2020

Temp ( °F °C ) Dew Point ( °F °C ) Humidity (%) Winds ( mph kmh ) Pressure ( in mb ) Visibility ( mi km ) Precip ( " mm )
12:53 am 00:53 Partly Cloudy 55 12.8 53 11.7 93 93 SSE 3 6 30.15 1021 9 14 0.00 0.00
1:53 am 01:53 Cloudy 55 12.8 53 11.7 93 93 SE 3 6 30.14 1021 10 16 0.00 0.00
2:53 am 02:53 Mostly Cloudy 55 12.8 52 11.1 90 90 Calm 30.13 1020 9 14 0.00 0.00
3:32 am 03:32 Mostly Clear with Mist and Fog 54 12.2 52 11.1 93 93 Calm 30.12 1020 2 3 0.00 0.00
3:39 am 03:39 Mostly Clear with Mist and Fog 54 12.2 52 11.1 93 93 Calm 30.12 1020 3 5 0.00 0.00
3:53 am 03:53 Partly Cloudy with Mist and Fog 54 12.2 52 11.1 93 93 Calm 30.12 1020 2 3 0.00 0.00
4:00 am 04:00 Mostly Cloudy with Mist and Fog 54 12.2 52 11.1 93 93 Calm 30.12 1020 1 2 0.00 0.00
4:17 am 04:17 Cloudy with Mist and Fog 53 11.7 51 10.6 93 93 Calm 30.13 1020 1 1 0.00 0.00
4:30 am 04:30 Cloudy with Mist and Fog 54 12.2 52 11.1 93 93 Calm 30.13 1020 1 2 0.00 0.00
4:33 am 04:33 Cloudy with Mist and Fog 54 12.2 52 11.1 93 93 Calm 30.13 1020 3 5 0.00 0.00
4:53 am 04:53 Cloudy 55 12.8 53 11.7 93 93 SE 3 6 30.12 1020 8 13 0.00 0.00
5:53 am 05:53 Cloudy 55 12.8 53 11.7 93 93 Calm 30.12 1020 9 14 0.00 0.00
6:41 am 06:41 Sunny with Mist and Fog 54 12.2 52 11.1 93 93 SSE 3 6 30.14 1021 3 4 0.00 0.00
6:50 am 06:50 Sunny with Mist and Fog 54 12 52 11 94 94 SSE 3 6 30.14 1021 4 6 0.00 0.00
6:53 am 06:53 Sunny with Mist and Fog 54 12.2 52 11.1 93 93 Calm 30.14 1021 5 8 0.00 0.00
7:53 am 07:53 Sunny 58 14.4 55 12.8 90 90 S 3 6 30.15 1021 10 16 0.00 0.00
8:53 am 08:53 Sunny 61 16.1 55 12.8 81 81 S 7 11 30.14 1021 10 16 0.00 0.00
9:53 am 09:53 Cloudy 64 17.8 56 13.3 75 75 SSW 7 11 30.14 1021 10 16 0.00 0.00
10:53 am 10:53 Partly Cloudy 65 18.3 58 14.4 78 78 Calm 30.14 1021 10 16 0.00 0.00
11:53 am 11:53 Sunny 70 21.1 59 15 68 68 SSW 13 20 30.11 1020 10 16 0.00 0.00
12:53 pm 12:53 Mostly Sunny 76 24.4 62 16.7 62 62 SW 16 26 30.11 1020 10 16 0.00 0.00
1:53 pm 13:53 Sunny 79 26.1 60 15.6 52 52 SW 18 30 30.09 1019 10 16 0.00 0.00
2:53 pm 14:53 Sunny 81 27.2 57 13.9 44 44 SW 17 28 30.06 1018 10 16 0.00 0.00
3:53 pm 15:53 Mostly Sunny 81 27.2 56 13.3 42 42 SW 20 31 30.05 1018 10 16 0.00 0.00
4:53 pm 16:53 Partly Cloudy 80 26.7 58 14.4 47 47 SW 9 15 30.04 1017 10 16 0.00 0.00
5:53 pm 17:53 Sunny 80 26.7 58 14.4 47 47 SW 13 20 30.02 1017 10 16 0.00 0.00
6:53 pm 18:53 Sunny 80 26.7 57 13.9 45 45 SW 14 22 30.02 1017 10 16 0.00 0.00
7:53 pm 19:53 Sunny 77 25 57 13.9 50 50 SSW 12 19 30.01 1016 10 16 0.00 0.00
8:53 pm 20:53 Clear 74 23.3 55 12.8 52 52 SSW 8 13 30.00 1016 10 16 0.00 0.00
9:53 pm 21:53 Clear 71 21.7 54 12.2 55 55 SSW 8 13 29.99 1016 10 16 0.00 0.00
10:53 pm 22:53 Clear 72 22.2 53 11.7 52 52 SSW 12 19 29.99 1016 10 16 0.00 0.00
11:53 pm 23:53 Clear 72 22.2 53 11.7 52 52 SSW 13 20 29.97 1015 10 16 0.00 0.00

Powered by AerisWeather